SKU011 KVQQ-KMEM

Flight info

Callsign SKU011
Flight time N/A
Altitude 32000
Route TAY GIMLY WASER VANZE3
Aircraft A320/M-SDE3FGHIRWY/LB1

Departure

Time 2026-04-19 15:34
Airport Cecil Airport (KVQQ)

Arrival

Time N/A
Airport Memphis International Airport (KMEM)
Time Latitude Longitude Altitude Speed Heading
2026-04-19 15:22 30.22022 -81.89135 87 ft 0 kts 205°
2026-04-19 15:29 30.22019 -81.89136 85 ft 2 kts 200°
2026-04-19 15:29 30.22002 -81.89106 87 ft 7 kts 104°
2026-04-19 15:29 30.21988 -81.89055 86 ft 8 kts 120°
2026-04-19 15:30 30.21946 -81.89049 88 ft 4 kts 190°
2026-04-19 15:30 30.21913 -81.89083 86 ft 11 kts 278°
2026-04-19 15:30 30.21882 -81.89150 89 ft 10 kts 190°
2026-04-19 15:30 30.21819 -81.89157 89 ft 8 kts 186°
2026-04-19 15:31 30.21763 -81.89160 89 ft 12 kts 180°
2026-04-19 15:31 30.21656 -81.89161 88 ft 0 kts 179°
2026-04-19 15:32 30.21641 -81.89160 89 ft 14 kts 179°
2026-04-19 15:32 30.21569 -81.89116 89 ft 9 kts 105°
2026-04-19 15:32 30.21568 -81.89067 88 ft 0 kts 89°
2026-04-19 15:33 30.21568 -81.89026 87 ft 20 kts 89°
2026-04-19 15:33 30.21572 -81.88779 87 ft 73 kts 89°
2026-04-19 15:33 30.21577 -81.87533 85 ft 154 kts 89°
2026-04-19 15:34 30.21616 -81.86635 238 ft 171 kts 84°
2026-04-19 15:34 30.21632 -81.85295 1023 ft 165 kts 88°
2026-04-19 15:34 30.21663 -81.83529 1900 ft 169 kts 76°
2026-04-19 15:34 30.21979 -81.82684 2129 ft 174 kts 44°
2026-04-19 15:35 30.23037 -81.81973 2405 ft 188 kts
2026-04-19 15:35 30.24346 -81.82198 2723 ft 207 kts 329°
2026-04-19 15:35 30.25332 -81.83503 3078 ft 234 kts 298°
2026-04-19 15:35 30.26039 -81.85298 3584 ft 252 kts 293°
2026-04-19 15:36 30.26697 -81.87196 4349 ft 259 kts 292°
2026-04-19 15:36 30.27355 -81.89158 5291 ft 262 kts 290°
2026-04-19 15:36 30.28013 -81.91115 6188 ft 265 kts 290°
2026-04-19 15:36 30.28698 -81.93121 7032 ft 267 kts 290°
2026-04-19 15:37 30.29391 -81.95123 7856 ft 270 kts 290°
2026-04-19 15:37 30.30095 -81.97129 8680 ft 273 kts 290°
2026-04-19 15:37 30.30819 -81.99188 9547 ft 276 kts 289°
2026-04-19 15:37 30.31542 -82.01240 10313 ft 279 kts 289°
2026-04-19 15:38 30.32307 -82.03417 10609 ft 301 kts 290°
2026-04-19 15:38 30.33116 -82.05728 10785 ft 324 kts 290°
2026-04-19 15:38 30.33989 -82.08218 11170 ft 338 kts 290°
2026-04-19 15:38 30.34879 -82.10739 11795 ft 343 kts 290°
2026-04-19 15:39 30.35791 -82.13327 12487 ft 346 kts 290°
2026-04-19 15:39 30.36701 -82.15910 13157 ft 349 kts 290°
2026-04-19 15:39 30.37624 -82.18543 13821 ft 353 kts 290°
2026-04-19 15:39 30.38547 -82.21175 14412 ft 356 kts 290°
2026-04-19 15:40 30.39479 -82.23827 15007 ft 359 kts 290°
2026-04-19 15:40 30.40425 -82.26513 15593 ft 362 kts 290°
2026-04-19 15:40 30.41376 -82.29210 16177 ft 364 kts 289°
2026-04-19 15:40 30.42340 -82.31952 16769 ft 367 kts 289°
2026-04-19 15:41 30.43299 -82.34682 17326 ft 370 kts 289°
2026-04-19 15:41 30.44277 -82.37475 17889 ft 373 kts 289°
2026-04-19 15:41 30.45245 -82.40258 18446 ft 376 kts 289°
2026-04-19 15:41 30.46230 -82.43095 18921 ft 378 kts 289°
2026-04-19 15:42 30.47207 -82.45912 19421 ft 380 kts 289°
2026-04-19 15:42 30.48197 -82.48766 19934 ft 382 kts 289°
2026-04-19 15:42 30.49183 -82.51601 20441 ft 383 kts 289°
2026-04-19 15:42 30.50302 -82.54443 20913 ft 388 kts 297°
2026-04-19 15:43 30.51853 -82.57000 21393 ft 394 kts 307°
2026-04-19 15:43 30.53735 -82.59342 21867 ft 397 kts 309°
2026-04-19 15:43 30.55638 -82.61692 22346 ft 399 kts 309°
2026-04-19 15:44 30.59446 -82.66409 23290 ft 402 kts 309°
2026-04-19 15:44 30.61348 -82.68770 23735 ft 404 kts 309°
2026-04-19 15:44 30.63260 -82.71150 24107 ft 406 kts 309°
2026-04-19 15:44 30.65198 -82.73568 24485 ft 407 kts 309°
2026-04-19 15:45 30.67113 -82.75956 24855 ft 408 kts 308°
2026-04-19 15:45 30.69043 -82.78362 25228 ft 409 kts 308°
2026-04-19 15:45 30.71001 -82.80803 25582 ft 411 kts 308°
2026-04-19 15:45 30.72938 -82.83221 25933 ft 412 kts 308°
2026-04-19 15:46 30.74907 -82.85681 26291 ft 414 kts 308°
2026-04-19 15:46 30.76858 -82.88117 26643 ft 415 kts 308°
2026-04-19 15:46 30.78833 -82.90585 26993 ft 417 kts 308°
2026-04-19 15:46 30.80804 -82.93046 27313 ft 418 kts 308°
2026-04-19 15:47 30.82779 -82.95511 27636 ft 420 kts 308°
2026-04-19 15:47 30.84788 -82.98022 27945 ft 422 kts 307°
2026-04-19 15:47 30.86777 -83.00512 28243 ft 424 kts 307°
2026-04-19 15:47 30.88800 -83.03049 28533 ft 426 kts 307°
2026-04-19 15:48 30.90807 -83.05571 28821 ft 427 kts 307°
2026-04-19 15:48 30.92841 -83.08127 29101 ft 429 kts 307°
2026-04-19 15:48 30.94856 -83.10662 29366 ft 431 kts 307°
2026-04-19 15:48 30.96907 -83.13245 29628 ft 433 kts 307°
2026-04-19 15:49 30.98940 -83.15804 29957 ft 433 kts 307°
2026-04-19 15:49 31.01008 -83.18401 30325 ft 432 kts 307°